Tracking 29892 objects as of 21-Nov-2024
HD Live streaming from Space Station
objects crossing your sky now

DMSP 5D-2 F13 DEB

Track DMSP 5D-2 F13 DEB now!
10-day predictions


NORAD ID: 42298
Int'l Code: 1995-015HQ
Perigee: 824.1 km
Apogee: 1,220.0 km
Inclination: 98.7 °
Period: 105.4 minutes
Semi major axis: 7393 km
RCS: Unknown
Launch date: March 24, 1995
Source: United States (US)
Launch site: AIR FORCE WESTERN TEST RANGE (AFWTR)

Note: This is SATELLITE DEBRIS
Your satellite tracking list
Your tracking list is empty




NASA's NSSDC Master Catalog

Two Line Element Set (TLE):
1 42298U 95015HQ  24323.76366126  .00005038  00000-0  48478-2 0  9995
2 42298  98.7085 331.6757 0267801 337.6342  21.3302 13.65739162455095
Source of the keplerian elements: AFSPC